Regional Weather Roundup
Issued by NWS Mt. Holly, NJ

Home | Current Version | Previous Version | Text Only | Print | Product List | Glossary On
Versions: 1 2 3 4 5 6 7 8 9 10 11 12 13 14 15 16 17 18 19 20 21 22 23 24 25 26 27 28
000
ASUS41 KPHI 270912
RWRPHI

REGIONAL WEATHER ROUNDUP
NATIONAL WEATHER SERVICE MOUNT HOLLY NJ
500 AM EDT SAT MAY 27 2017

NOTE:  "FAIR" INDICATES FEW OR NO CLOUDS BELOW 12,000 FEET WITH NO
SIGNIFICANT WEATHER AND/OR OBSTRUCTIONS TO VISIBILITY.

 * = STATION DOES NOT REPORT PRECIPITATION (E.G. RAIN, SNOW, ETC.)
        OR FOG.

NJZ015>026-271000-
SOUTHERN NEW JERSEY

CITY           SKY/WX    TMP DP  RH WIND       PRES   REMARKS
POMONA         CLEAR     58  52  80 W5        29.88R
WILDWOOD*      CLEAR     64  55  72 W8        29.89S
MILLVILLE      CLEAR     53  53 100 W6        29.89R
WRIGHTSTOWN    CLEAR     58  54  89 W6        29.84S
MOUNT HOLLY    CLEAR     59  53  80 W3        29.87R
TRENTON        CLEAR     59  54  83 W7        29.86R

$$
NJZ001>014-271000-
NORTHERN NEW JERSEY

CITY           SKY/WX    TMP DP  RH WIND       PRES   REMARKS
SUSSEX         MOCLDY    53  53 100 SW3       29.87R
ANDOVER*         N/A     53  52  96 CALM      29.87R
MORRISTOWN     CLEAR     52  52 100 CALM      29.86R
NEWARK         PTCLDY    58  53  84 SW5       29.85R
TETERBORO      CLEAR     56  53  90 S5        29.84R
CALDWELL       PTCLDY    57  53  86 W3        29.86R
SOMERVILLE     MOCLDY    53  52  96 CALM      29.84S
ALLAIRE*       CLEAR     57  55  93 W3        29.87
TOMS RIVER*    CLEAR     56  54  93 W6        29.88R

$$
PAZ043-044-047-054-055-060>062-066>071-271000-
EASTERN PENNSYLVANIA

CITY           SKY/WX    TMP DP  RH WIND       PRES   REMARKS
PHILADELPHIA   CLEAR     61  51  70 W10       29.89S
NORTH PHILA    CLEAR     60  52  74 NW9       29.88S
BLUE BELL*     CLEAR     52  52 100 CALM      29.90S
DOYLESTOWN     CLEAR     56  53  90 CALM      29.87S
QUAKERTOWN*    CLEAR     52  52 100 CALM      29.90R
PERKASIE*      FAIR      54  54 100 W5        29.90R
POTTSTOWN      PTCLDY    55  50  83 W3        29.90S
LANCASTER      CLEAR     53  51  93 W6        29.91R
COATESVILLE    CLEAR     54  52  94 W7        29.92R
READING        CLEAR     54  53  97 CALM      29.89S
ALLENTOWN      MOCLDY    56  50  80 W6        29.88S
MOUNT POCONO   CLOUDY    53  53 100 W6        29.89S
HAZLETON       CLOUDY    54  52  94 W5        29.92S
LEHIGHTON      FAIR      48  48 100 CALM      29.90S
WILKES BARRE   CLOUDY    57  53  86 SW6       29.88S

$$
DEZALL-MDZ008-012-015-019-020-271000-
DELAWARE AND EASTERN MARYLAND

CITY           SKY/WX    TMP DP  RH WIND       PRES   REMARKS
WILMINGTON     CLEAR     54  51  90 W6        29.90S
DOVER          PTCLDY    60  60  97 W7        29.89S
GEORGETOWN     CLOUDY    64  55  72 W5        29.91R
EASTON         MOCLDY    63  57  82 CALM      29.95S
ABERDEEN       CLOUDY    57  55  92 W3        29.92R
PATUXENT       CLOUDY    60  58  92 W5        29.92S
OCEAN CITY     CLOUDY    60  54  80 NW5       29.92R
WALLOPS ISLAND CLEAR     60  57  89 NW5       29.92S
CAMBRIDGE        N/A     61  57  88 CALM      29.92S
SALISBURY      CLOUDY    59  56  89 CALM      29.91R

$$
PAZ001-021-NYZ056-072-MDZ011-DCZ001-271000-
OTHER NEARBY LOCATIONS

CITY           SKY/WX    TMP DP  RH WIND       PRES   REMARKS
HARRISBURG     CLEAR     54  52  93 CALM      29.91R
STATE COLLEGE  CLEAR     51  49  94 SW5       29.91F
WILLIAMSPORT   CLEAR     53  51  93 CALM      29.89S
BINGHAMTON     CLOUDY    53  53 100 W8        29.87S
NEW YORK CITY  PTCLDY    59  54  83 W5        29.87R
BALTIMORE      MOCLDY    59  55  87 CALM      29.92R
WASHINGTON DC  PTCLDY    62  58  86 S3        29.93S

$$




USA.gov is the U.S. government's official web portal to all federal, state and local government web resources and services.